Date String (YYYY-MM-DD hh:mm:ss) UTC,Instrument flags,Ambient pressure (hPa),Sample flow (lpm),Bypass flow (lpm),Sample temperature (°C),Ambient temperature (°C),ASC tube jacket temperature (°C),LED temperature (°C),Box temperature (°C),Sample RH (%),Span deviation,Mass concentration (μg/m³),Mass concentration (μg/m³),Mass concentration (μg/m³)
DateTimeUTC,F1_M11,P_M11,Q1_M11,Q2_M11,T1_M11,T2_M11,T3_M11,T4_M11,T5_M11,U1_M11,ZSPAN_M11,X0_M11,X2_M11,X1_M11
2022-03-04 10:00:00,,0820.6,4.99,0.00,27.3,26.5,00.0,36.4,29.1,13.3,-000.0,0030.55,0014.65,0012.42
2022-03-04 10:01:00,,0820.5,4.99,0.00,27.3,26.5,00.0,36.4,29.1,13.3,-000.2,0030.53,0014.68,0012.50
2022-03-04 10:02:00,,0820.6,5.00,0.00,27.3,26.5,00.0,36.4,29.1,13.2,-000.3,0030.03,0014.79,0012.59
2022-03-04 10:03:00,,0820.6,5.01,0.00,27.3,26.5,00.0,36.4,29.1,13.2,-000.3,0029.81,0014.94,0012.65
2022-03-04 10:04:00,,0820.6,5.00,0.00,27.3,26.5,00.0,36.4,29.1,13.3,-000.5,0029.27,0015.01,0012.73
2022-03-04 10:05:00,,0820.6,4.99,0.00,27.3,26.4,00.0,36.4,29.0,13.3,-000.7,0029.29,0015.17,0012.86
2022-03-04 10:06:00,,0820.6,4.99,0.00,27.3,26.4,00.0,36.4,29.0,13.4,-001.0,0030.34,0015.32,0012.94
2022-03-04 10:07:00,,0820.6,5.00,0.00,27.2,26.3,00.0,36.3,28.9,13.4,-001.3,0030.67,0015.38,0012.99
2022-03-04 10:08:00,,0820.5,5.02,0.00,27.2,26.3,00.0,36.3,28.9,13.5,-001.1,0030.46,0015.41,0013.03
2022-03-04 10:09:00,,0820.5,5.00,0.00,27.2,26.3,00.0,36.3,28.9,13.5,-001.1,0031.38,0015.51,0013.10
2022-03-04 10:10:00,,0820.6,5.00,0.00,27.2,26.3,00.0,36.3,28.9,13.5,-001.1,0032.48,0015.50,0013.14
2022-03-04 10:11:00,,0820.6,4.99,0.00,27.2,26.3,00.0,36.3,28.9,13.5,-001.3,0033.79,0015.54,0013.19
2022-03-04 10:12:00,,0820.5,5.00,0.00,27.1,26.2,00.0,36.3,28.8,13.5,-001.2,0033.70,0015.59,0013.22
2022-03-04 10:13:00,,0820.4,4.99,0.00,27.1,26.2,00.0,36.2,28.8,13.5,-001.0,0033.06,0015.57,0013.23
2022-03-04 10:14:00,,0820.4,5.01,0.00,27.1,26.2,00.0,36.2,28.8,13.5,-000.8,0033.27,0015.52,0013.22
2022-03-04 10:15:00,,0820.4,5.01,0.00,27.1,26.2,00.0,36.2,28.8,13.5,-000.7,0033.87,0015.57,0013.24
2022-03-04 10:16:00,,0820.5,5.00,0.00,27.1,26.2,00.0,36.2,28.8,13.5,-000.4,0034.23,0015.65,0013.27
2022-03-04 10:17:00,,0820.5,5.00,0.00,27.1,26.2,00.0,36.2,28.8,13.5,-000.2,0033.91,0015.71,0013.30
2022-03-04 10:18:00,,0820.4,5.00,0.00,27.0,26.2,00.0,36.2,28.8,13.5,-000.0,0033.89,0015.75,0013.32
2022-03-04 10:19:00,,0820.4,4.99,0.00,27.0,26.2,00.0,36.2,28.8,13.5,-000.2,0034.12,0015.84,0013.34
2022-03-04 10:20:00,,0820.3,5.00,0.00,27.0,26.2,00.0,36.1,28.8,13.5,-000.1,0033.79,0015.84,0013.35
2022-03-04 10:21:00,,0820.3,5.00,0.00,27.0,26.2,00.0,36.1,28.8,13.5,-000.1,0033.15,0015.94,0013.37
2022-03-04 10:22:00,,0820.3,5.00,0.00,27.0,26.2,00.0,36.1,28.8,13.6,-000.0,0031.98,0016.02,0013.35
2022-03-04 10:23:00,,0820.3,5.01,0.00,27.0,26.1,00.0,36.1,28.8,13.6,-000.2,0031.39,0016.01,0013.35
2022-03-04 10:24:00,,0820.3,5.00,0.00,27.0,26.2,00.0,36.1,28.8,13.6,-000.3,0031.48,0016.03,0013.36
2022-03-04 10:25:00,,0820.3,5.00,0.00,27.0,26.2,00.0,36.1,28.8,13.6,-000.2,0031.66,0016.07,0013.36
2022-03-04 10:26:00,,0820.3,5.01,0.00,27.0,26.2,00.0,36.1,28.8,13.6,-000.1,0030.67,0015.99,0013.36
2022-03-04 10:27:00,,0820.3,5.02,0.00,27.0,26.2,00.0,36.1,28.8,13.6,-000.1,0029.41,0015.93,0013.34
2022-03-04 10:28:00,,0820.3,5.00,0.00,27.0,26.2,00.0,36.0,28.7,13.6,-000.0,0029.60,0015.92,0013.33
2022-03-04 10:29:00,,0820.4,4.99,0.00,26.9,26.1,00.0,36.0,28.7,13.6,-000.0,0029.32,0015.93,0013.33
2022-03-04 10:30:00,,0820.4,5.01,0.00,26.9,26.1,00.0,36.0,28.6,13.6,0000.0,0028.32,0015.89,0013.37
2022-03-04 10:31:00,,0820.4,4.99,0.00,26.9,26.0,00.0,36.0,28.6,13.6,-000.1,0028.13,0015.89,0013.38
2022-03-04 10:32:00,,0820.4,5.01,0.00,26.8,25.9,00.0,36.0,28.5,13.7,-000.2,0028.41,0015.87,0013.40
2022-03-04 10:33:00,,0820.3,5.00,0.00,26.8,25.9,00.0,36.0,28.5,13.7,-000.3,0028.20,0015.79,0013.41
2022-03-04 10:34:00,,0820.3,5.00,0.00,26.8,25.9,00.0,35.9,28.5,13.7,-000.4,0029.30,0015.79,0013.41
2022-03-04 10:35:00,,0820.3,5.00,0.00,26.7,25.8,00.0,35.9,28.5,13.8,-000.4,0031.10,0015.82,0013.41
2022-03-04 10:36:00,,0820.4,5.02,0.00,26.7,25.8,00.0,35.9,28.4,13.8,-000.6,0031.20,0015.84,0013.41
2022-03-04 10:37:00,,0820.3,4.99,0.00,26.7,25.8,00.0,35.9,28.4,13.8,-000.7,0031.63,0015.89,0013.41
2022-03-04 10:38:00,,0820.3,5.00,0.00,26.6,25.7,00.0,35.9,28.3,13.8,-000.7,0032.27,0015.98,0013.44
2022-03-04 10:39:00,,0820.4,5.00,0.00,26.6,25.6,00.0,35.8,28.3,13.9,-000.6,0032.02,0015.95,0013.45
2022-03-04 10:40:00,,0820.3,5.01,0.00,26.6,25.6,00.0,35.8,28.2,13.9,-000.4,0032.64,0015.95,0013.44
2022-03-04 10:41:00,,0820.4,4.99,0.00,26.6,25.6,00.0,35.8,28.2,13.9,-000.5,0033.89,0015.94,0013.41
2022-03-04 10:42:00,,0820.4,5.00,0.00,26.5,25.6,00.0,35.8,28.2,13.9,-000.4,0034.56,0015.94,0013.39
2022-03-04 10:43:00,,0820.3,5.00,0.00,26.5,25.6,00.0,35.7,28.2,13.9,-000.2,0034.08,0015.93,0013.36
2022-03-04 10:44:00,,0820.4,5.00,0.00,26.5,25.6,00.0,35.7,28.2,13.9,-000.2,0035.55,0015.98,0013.38
2022-03-04 10:45:00,,0820.3,5.01,0.00,26.5,25.6,00.0,35.7,28.2,13.9,-000.0,0035.86,0016.06,0013.41
2022-03-04 10:46:00,,0820.3,5.00,0.00,26.5,25.6,00.0,35.7,28.3,13.9,-000.2,0034.72,0016.06,0013.41
2022-03-04 10:47:00,,0820.3,4.99,0.00,26.5,25.6,00.0,35.7,28.3,13.9,-000.1,0033.66,0016.07,0013.43
2022-03-04 10:48:00,,0820.4,5.00,0.00,26.5,25.6,00.0,35.7,28.3,13.9,-000.1,0033.56,0016.10,0013.47
2022-03-04 10:49:00,,0820.3,5.00,0.00,26.5,25.6,00.0,35.6,28.2,13.9,-000.2,0033.56,0016.06,0013.44
2022-03-04 10:50:00,,0820.4,5.00,0.00,26.5,25.6,00.0,35.6,28.2,13.9,-000.2,0034.39,0016.07,0013.44
2022-03-04 10:51:00,,0820.3,5.00,0.00,26.4,25.5,00.0,35.6,28.2,14.0,-000.3,0035.00,0016.13,0013.49
2022-03-04 10:52:00,,0820.3,5.00,0.00,26.4,25.5,00.0,35.6,28.1,14.0,-000.3,0034.45,0016.20,0013.55
2022-03-04 10:53:00,,0820.3,4.99,0.00,26.4,25.5,00.0,35.6,28.1,14.0,-000.4,0034.50,0016.19,0013.58
2022-03-04 10:54:00,,0820.3,5.00,0.00,26.4,25.5,00.0,35.5,28.1,13.9,-000.5,0035.34,0016.24,0013.60
2022-03-04 10:55:00,,0820.4,4.99,0.00,26.4,25.5,00.0,35.5,28.1,13.9,-000.5,0034.61,0016.29,0013.64
2022-03-04 10:56:00,,0820.4,5.00,0.00,26.3,25.4,00.0,35.5,28.1,14.0,-000.4,0033.85,0016.30,0013.66
2022-03-04 10:57:00,,0820.4,5.00,0.00,26.3,25.4,00.0,35.5,28.0,14.0,-000.0,0034.29,0016.32,0013.69
2022-03-04 10:58:00,,0820.4,4.99,0.00,26.3,25.4,00.0,35.5,28.0,14.0,-000.1,0034.87,0016.30,0013.69
2022-03-04 10:59:00,,0820.3,5.00,0.00,26.3,25.4,00.0,35.4,28.1,14.0,-000.0,0035.92,0016.29,0013.66
